FW7632 Weather Reports


Display with metric or nautical units.
time (UTC)temp
F
wind
direction
speed
MPH
gust
MPH
rain 1hr
in
rain 24hr
in
rain mn
in
humidity
%
barometer
mb
20260831073058 64 281 0.0 1.0 0.00 0.00 0.00 1 1018.3
20260831071555 64 280 0.0 0.0 0.00 0.00 0.00 1 1018.1
20260831070051 65 280 0.0 1.0 0.00 0.00 0.00 1 1018.2
20260831064545 65 281 0.0 1.0 0.00 0.00 0.00 1 1018.2
20260831063041 66 279 0.0 0.0 0.00 0.00 0.00 1 1018.3
20260831061539 66 279 0.0 0.0 0.00 0.00 0.00 1 1018.5
20260831060032 66 279 0.0 1.0 0.00 0.00 0.00 1 1018.6
20260831054526 67 279 0.0 1.0 0.00 0.00 0.00 1 1018.8
20260831053025 67 279 0.0 0.0 0.00 0.00 0.00 1 1018.8
20260831051521 67 279 0.0 0.0 0.00 0.00 0.00 1 1018.8
20260831050013 67 279 0.0 0.0 0.00 0.00 0.00 1 1018.8
20260831044510 67 278 0.0 0.0 0.00 0.00 0.00 1 1018.8
20260831043004 68 277 0.0 0.0 0.00 0.00 0.00 1 1018.8
20260831041611 68 277 0.0 0.0 0.00 0.00 0.00 1 1018.9
20260831040056 68 277 0.0 0.0 0.00 0.00 0.00 1 1018.7
20260831034553 68 277 0.0 2.0 0.00 0.00 0.00 1 1018.9
20260831033101 68 277 0.0 1.0 0.00 0.00 0.00 1 1018.8
20260831031543 68 277 0.0 1.0 0.00 0.00 0.00 1 1018.9
20260831030038 68 277 0.0 2.0 0.00 0.00 0.00 1 1018.8
20260831024534 68 277 0.0 0.0 0.00 0.00 0.00 1 1018.8
20260831023029 68 277 0.0 1.0 0.00 0.00 0.00 1 1018.9
20260831021529 69 277 0.0 2.0 0.00 0.00 0.00 1 1018.9
20260831020023 69 277 1.0 3.0 0.00 0.00 0.00 1 1018.9
20260831014519 69 276 0.0 6.0 0.00 0.00 0.00 1 1018.9
20260831013019 69 277 0.0 8.0 0.00 0.00 0.00 1 1018.7
20260831011521 69 269 0.0 5.0 0.00 0.00 0.00 1 1018.7
20260831010016 69 284 3.0 9.0 0.00 0.00 0.00 1 1018.7
20260831004512 70 310 4.0 7.0 0.00 0.00 0.00 1 1018.6
20260831003017 70 271 0.0 6.0 0.00 0.00 0.00 1 1018.3
20260831001509 70 271 0.0 3.0 0.00 0.00 0.00 1 1017.9
20260831000002 70 270 0.0 6.0 0.00 0.00 0.00 1 1017.7
20260830234611 70 271 0.0 3.0 0.00 0.00 0.00 1 1017.6
20260830233057 71 269 0.0 2.0 0.00 0.00 0.00 1 1017.5
20260830231554 71 269 0.0 2.0 0.00 0.00 0.00 1 1017.5
20260830230046 71 271 0.0 3.0 0.00 0.00 0.00 1 1017.5
20260830224542 71 271 0.0 4.0 0.00 0.00 0.00 1 1017.5
20260830223037 72 272 0.0 2.0 0.00 0.00 0.00 1 1017.3
20260830221533 72 269 0.0 6.0 0.00 0.00 0.00 1 1017.4
20260830220029 72 283 0.0 4.0 0.00 0.00 0.00 1 1017.2
20260830214525 72 246 1.0 4.0 0.00 0.00 0.00 3 1017.3
20260830213028 73 246 1.0 5.0 0.00 0.00 0.00 8 1017.2
20260830211516 73 246 1.0 7.0 0.00 0.00 0.00 12 1017.3
20260830210011 73 281 2.0 8.0 0.00 0.00 0.00 17 1017.4
20260830204507 73 287 1.0 4.0 0.00 0.00 0.00 26 1017.3
20260830203007 74 26 1.0 6.0 0.00 0.00 0.00 31 1017.3
20260830201604 74 360 1.0 4.0 0.00 0.00 0.00 33 1017.0
20260830200055 75 355 2.0 6.0 0.00 0.00 0.00 36 1017.0
20260830194553 76 13 2.0 13.0 0.00 0.00 0.00 35 1016.9
20260830193049 78 311 3.0 7.0 0.00 0.00 0.00 37 1016.9
20260830191544 79 242 1.0 4.0 0.00 0.00 0.00 41 1016.7
20260830190040 80 271 1.0 7.0 0.00 0.00 0.00 42 1016.7
20260830184540 81 258 1.0 4.0 0.00 0.00 0.00 43 1016.7
20260830183031 82 225 1.0 4.0 0.00 0.00 0.00 44 1016.7
20260830181527 82 259 1.0 7.0 0.00 0.00 0.00 44 1017.0
20260830180022 83 292 0.0 6.0 0.00 0.00 0.00 44 1016.9
20260830174518 84 279 3.0 8.0 0.00 0.00 0.00 44 1017.0
20260830173013 84 245 2.0 8.0 0.00 0.00 0.00 43 1017.3
20260830171509 84 219 3.0 9.0 0.00 0.00 0.00 43 1017.4
20260830170003 85 293 1.0 10.0 0.00 0.00 0.00 42 1017.5
20260830164604 84 229 1.0 5.0 0.00 0.00 0.00 38 1017.7
20260830163056 82 318 2.0 8.0 0.00 0.00 0.00 35 1017.9
20260830161613 81 290 1.0 5.0 0.00 0.00 0.00 33 1018.1
20260830160046 80 297 0.0 4.0 0.00 0.00 0.00 29 1018.3
20260830154542 77 311 3.0 8.0 0.00 0.00 0.00 21 1018.5
20260830153037 75 280 1.0 4.0 0.00 0.00 0.00 12 1018.6
20260830151535 73 333 1.0 3.0 0.00 0.00 0.00 10 1018.6
20260830150056 72 336 0.0 3.0 0.00 0.00 0.00 3 1018.8
20260830144528 70 336 1.0 3.0 0.00 0.00 0.00 3 1018.9
20260830143020 69 335 0.0 4.0 0.00 0.00 0.00 1 1018.8
20260830141516 69 331 0.0 3.0 0.00 0.00 0.00 1 1018.5
20260830140011 68 331 1.0 4.0 0.00 0.00 0.00 1 1018.8
20260830134507 66 329 0.0 2.0 0.00 0.00 0.00 1 1018.9
20260830133006 65 330 1.0 2.0 0.00 0.00 0.00 1 1019.1
20260830131559 64 330 0.0 2.0 0.00 0.00 0.00 1 1019.2
20260830124549 62 268 0.0 3.0 0.00 0.00 0.00 1 1019.4
20260830123045 62 269 0.0 2.0 0.00 0.00 0.00 1 1019.5
20260830121549 61 269 0.0 0.0 0.00 0.00 0.00 1 1019.4
20260830120036 60 269 0.0 1.0 0.00 0.00 0.00 1 1019.5
20260830114532 60 269 0.0 1.0 0.00 0.00 0.00 1 1019.6
20260830113029 59 269 0.0 0.0 0.00 0.00 0.00 1 1019.8
20260830111524 59 269 0.0 0.0 0.00 0.00 0.00 1 1020.0
20260830110021 59 269 0.0 1.0 0.00 0.00 0.00 1 1020.0
20260830104514 58 269 0.0 0.0 0.00 0.00 0.00 1 1019.9
20260830103010 59 269 0.0 0.0 0.00 0.00 0.00 1 1019.9
20260830101516 59 269 0.0 0.0 0.00 0.00 0.00 1 1019.9
20260830100002 59 269 0.0 0.0 0.00 0.00 0.00 1 1020.0
20260830094557 59 269 0.0 1.0 0.00 0.00 0.00 1 1020.1
20260830093056 59 269 0.0 1.0 0.00 0.00 0.00 1 1020.3
20260830091551 59 269 0.0 1.0 0.00 0.00 0.00 1 1020.3
20260830090057 60 269 0.0 0.0 0.00 0.00 0.00 1 1020.3
20260830084541 60 269 0.0 2.0 0.00 0.00 0.00 1 1020.4
20260830083042 60 269 0.0 0.0 0.00 0.00 0.00 1 1020.4
20260830081531 60 269 0.0 0.0 0.00 0.00 0.00 1 1020.6
20260830080026 60 269 0.0 0.0 0.00 0.00 0.00 1 1020.7
20260830074522 60 269 0.0 0.0 0.00 0.00 0.00 1 1020.7